Location: Cahas Mountain Overlook
(37.0833°N, 80.1000°W)
Time: 19:21:13
(UTC-04:00)

Tiros 1 - Pass Details

Date: 10 February 2026
Orbit: 618 x 649 km, 48.4° (Epoch: 13 March)

Event Time Altitude Azimuth Distance (km) Brightness Sun altitude
Rises 18:54:05 0° 294° (WNW) 2,887 11.5 -12.3°
Reaches altitude 10° 18:56:42 10° 281° (W) 1,982 10.9 -12.8°
Maximum altitude 19:00:24 25° 226° (SW) 1,260 9.3 -13.5°
Drops below altitude 10° 19:04:08 10° 172° (S) 1,986 9.6 -14.2°
Sets 19:06:45 0° 158° (SSE) 2,895 10.3 -14.8°
